Regional Weather Roundup
Issued by NWS

Home | Current Version | Previous Version | Graphics & Text | Print | Product List | Glossary On
Versions: 1 2 3 4 5 6 7 8 9 10 11 12 13 14 15 16 17 18 19 20 21 22 23 24 25 26 27 28 29 30 31 32 33 34 35 36 37 38 39 40 41 42 43 44 45 46 47 48 49 50
281
ASUS45 KSLC 291110
RWRUT

UTAH REGIONAL WEATHER ROUNDUP
NATIONAL WEATHER SERVICE SALT LAKE CITY UT
500 AM MDT FRI JUL 29 2016

UTZ001>011-023>025-291200-

NORTHERN UTAH

CITY           SKY/WX    TMP DP  RH WIND       PRES   REMARKS
BRIGHAM CITY     N/A     64  41  42 CALM      30.04S
HILL AFB       CLEAR     70  37  29 E18       30.06F
LOGAN          CLEAR     58  46  64 CALM      30.06F
OGDEN          CLEAR     70  38  31 S8        30.03F
PROVO AIRPORT  CLEAR     64  43  45 E3        30.08R
SALT LAKE CITY CLEAR     75  44  33 S3        30.02S
VERNAL         CLEAR     63  33  32 S3        30.13R
WENDOVER       CLEAR     75  39  27 CALM      30.05S
HEBER CITY     CLEAR     50  41  71 CALM      30.17S

$$

UTZ012>022-026-027-291200-

SOUTHERN/CENTRAL UTAH

CITY           SKY/WX    TMP DP  RH WIND       PRES   REMARKS
BLANDING       CLEAR     68  32  26 NE8       30.21S
BRYCE CANYON   PTCLDY    51  36  56 W5        30.33S
CEDAR CITY     CLEAR     72  37  28 SE7       30.15S
DELTA          PTCLDY    68  32  26 NE7       30.06S
MILFORD        MOCLDY    68  41  37 S12       30.08S
MOAB/CYNLANDS  CLEAR     72  24  16 CALM      30.01R
PRICE          CLEAR     71  29  21 N9        30.15S
ST GEORGE      SUNNY     84  43  23 N5        29.94R

$$

REGIONAL REPORTS     COLORADO/ARIZONA

CITY           SKY/WX    TMP DP  RH WIND       PRES   REMARKS
CRAIG, CO      CLEAR     48  36  63 CALM      30.22R
GRAND JUNCTION CLOUDY    68  33  27 SE5       30.06R
RIFLE          CLEAR     59  35  40 SE3       30.15S
MONTROSE       CLOUDY    60  37  42 SE7       30.17R
CORTEZ         CLOUDY    59  40  49 E3        30.16R
PAGE, AZ       CLEAR     80  41  24 W3        30.00S
GRAND CANYON   MOCLDY    54  47  77 NE5       30.25S HAZE
KINGMAN        PTCLDY    77  44  30 SE7       29.96S
FLAGSTAFF      CLOUDY    65  43  44 SW8       30.26S

$$

REGIONAL REPORTS    NEVADA/IDAHO/WYOMING

CITY           SKY/WX    TMP DP  RH WIND       PRES   REMARKS
LAS VEGAS, NV  MOCLDY    95  48  20 S5        29.79R HX  91
ELY            MOCLDY    64  36  35 S10       30.22R
ELKO           CLEAR     63  35  35 CALM      30.11S
POCATELLO, ID  CLEAR     61  35  37 SW12      30.06R
BURLEY         CLEAR     57  48  72 S3        30.04S
EVANSTON, WY   CLOUDY    59  30  33 E10       30.28F
ROCK SPRINGS   CLEAR     58  45  62 E8        30.27S
KEMMERER         N/A     54  39  58 N10       30.31S

$$




USA.gov is the U.S. government's official web portal to all federal, state and local government web resources and services.